www.pogodaiklimat.ru

Погода и климат >> Архив погоды >> Россия >> Челябинская область >> Бреды


АРХИВ ПОГОДЫ в Бредах

Время (UTC), дата Ветер
(напр.,м/с)
 
Видим.   Явления Облачность Т
(С)
Тd
(С)
f
(%)
Тe
(С)
Тes
(С)
Комфортность P
(гПа)
Po
(гПа)
Тmin
(С)
Tmax
(С)
R
(мм)
R24
(мм)
S
(см)
09 13.09 ЮВ 1 50 км 8/4 1000 м
[Cu med, cong Ci fib]
+22.5 +6.3 35 +23 +28 комфорт 1023.6 987.8
12 13.09 ЮЗ 2 50 км 10/6 1000 м
[Cu med, cong Ci sp]
+23.5 +4.9 30 +23 +24 комфорт 1022.0 986.4
15 13.09 З 1 10 км 6/0
[Ci sp]
+16.7 +4.8 45 +18 +18 1022.4 985.9 +24.0
18 13.09 штиль 0 10 км ясно +9.8 +4.9 72 +9 +9 1023.2 985.8
21 13.09 штиль 0 10 км ясно +6.2 +3.0 80 +5 +5 1023.0 985.2
00 14.09 штиль 0 10 км ясно +4.1 +1.5 83 +3 +3 1022.8 984.7
03 14.09 штиль 0 50 км ясно +8.0 +3.0 71 +7 +8 1022.1 984.5 +4.0
06 14.09 З 1 50 км ясно +20.7 +5.1 36 +23 +30 комфорт 1020.0 984.1
09 14.09 З 3 50 км 4/4 1000 м
[Cu med, cong]
+23.6 +4.1 28 +23 +27 комфорт 1018.5 983.0
12 14.09 З 3 50 км 3/3 1000 м
[Cu med, cong]
+23.6 +1.5 23 +23 +24 комфорт 1017.5 982.0
15 14.09 ЮЗ 1 10 км ясно +17.0 +2.7 38 +18 +18 1018.3 982.0 +24.2
18 14.09 СЗ 1 10 км ясно +13.1 +2.8 50 +14 +14 1018.6 981.8
21 14.09 штиль 0 10 км ясно +6.8 +2.3 73 +6 +6 1019.0 981.4
00 15.09 штиль 0
{10}
50 км 10/10 600 м
[Cb cap]
+4.9 +1.5 79 +4 +4 1019.0 981.2
03 15.09 штиль 0 50 км ясно +8.8 +3.1 67 +8 +9 1018.5 981.2 +4.2
06 15.09 З 2 50 км ясно +22.6 +3.1 28 +22 +29 комфорт 1016.6 981.0
09 15.09 З 3 50 км 6/6 1000 м
[Cu med, cong]
+24.8 -0.3 19 +23 +26 комфорт 1015.1 979.8
12 15.09 З 2 50 км 8/6 1000 м
[Cu Sc Ci sp]
+23.5 -1.2 19 +22 +23 комфорт 1013.9 978.5
15 15.09 ЮЗ 1 10 км 6/6 1000 м
[Sc]
+17.6 -0.6 29 +19 +19 1013.7 977.6 +25.7
18 15.09 ЮЗ 2 10 км 8/8 1000 м
[Sc]
+15.0 -0.3 35 +15 +15 1013.3 976.9
21 15.09 штиль 0 10 км 10/10 1000 м
[Sc]
+13.2 +2.2 47 +13 +13 1011.9 975.3
00 16.09 Ю 3 10 км 10/10 1000 м
[Sc]
+16.6 +0.8 34 +16 +16 1009.8 973.8
03 16.09 Ю 1 50 км 10/10 1000 м
[Sc]
+13.2 +1.3 44 +14 +14 1008.8 972.4 +12.3
06 16.09 З 4
{10}
50 км 10/6 1000 м
[Sc diur, vesp Ac cast Cc]
+17.6 +3.9 40 +17 +18 1008.6 972.8
09 16.09 З 4
{11}
50 км 8/4 1000 м
[Cu med, cong Ci fib]
+16.8 +2.3 38 +16 +19 1008.8 972.8
12 16.09 З 5-10
{11}
50 км 10/8 1000 м
[Cu Sc Ci fib]
+16.7 +0.1 32 +16 +16 1009.2 973.2
15 16.09 З 1
{10}
10 км 10/0
[Ac lent Ci sp]
+12.3 +2.0 49 +13 +13 1010.7 974.1 +17.6
18 16.09 З 2 10 км 10/0
[Cs]
+11.4 +2.2 53 +11 +11 1010.9 974.2
21 16.09 ЮЗ 1 10 км 10/0
[Ac trans]
+9.6 +2.3 60 +9 +9 1010.9 973.9
00 17.09 ЮЗ 3 10 км 10/0
[Ac und]
+10.9 +3.1 59 +9 +9 1010.1 973.3
03 17.09 Ю 5-11
{11}
50 км 10/0
[Ac As]
+12.1 +1.1 47 +10 +10 1009.0 972.4 +8.8
06 17.09 ЮЗ 7-14
{14}
50 км пыльный позёмок 10/0
[Ac lent Cc]
+16.2 1008.4 972.3
09 17.09 ЮЗ 6-13
{14}
50 км пыльный позёмок 10/0
[Ac cast Cc]
+18.7 -0.5 27 +18 +19 1007.7 972.0
12 17.09 ЮЗ 3
{13}
50 км 10/0
[Ac lent Cc]
+20.5 -1.4 23 +21 +22 комфорт 1006.7 971.2
15 17.09 З 1
{10}
10 км 10/0
[Ac und]
+17.6 -0.0 30 +19 +19 1007.2 971.4 +20.5
18 17.09 В 1 10 км 10/0
[Ac lent Cc]
+12.1 +2.4 51 +12 +12 1007.8 971.3
21 17.09 Ю 2 10 км 10/10 1000 м
[Sc]
+14.8 +0.5 38 +15 +15 1006.1 969.9
00 18.09 ЮЗ 4
{12}
10 км 10/10 600 м
[Cb cap]
+18.9 +0.5 29 +19 +19 1004.4 968.9
03 18.09 Ю 4
{10}
50 км 10/4 1000 м
[Sc Ac lent Cc]
+17.5 +1.1 33 +17 +17 1004.4 968.7 +12.1
06 18.09 ЮЗ 3
{12}
50 км 10/3 1000 м
[Sc Ac As]
+20.2 +0.4 27 +21 +22 комфорт 1003.7 968.3
09 18.09 ЮЗ 5
{15}
50 км в посл. час ливневой дождь 10/6 600 м
[Cb cap Ac und]
+14.5 +12.5 88 +13 +13 1005.3 969.3
12 18.09 ЮЗ 4
{11}
50 км в посл. час ливневой дождь 10/8 600 м
[Cb cap Ac und]
+16.2 +12.4 78 +15 +16 1004.8 969.0
15 18.09 ЮЗ 2 10 км {ливн. осадки} 8/8 600 м
[Cb cap]
+14.3 +12.5 89 +14 +14 1006.0 969.9 +20.5 4
18 18.09 З 1 10 км {ливн. осадки} 6/0
[Ci sp]
+9.4 +7.8 90 +9 +9 1007.9 971.0
21 18.09 штиль 0 4000 м дымка 4/0
[Ci sp]
+6.1 +5.1 93 +5 +5 1008.1 970.8
00 19.09 Ю 1 4000 м дымка 3/0
[Ci sp]
+6.6 +5.8 95 +5 +5 1006.4 969.2
03 19.09 Ю 5-11
{11}
50 км 8/4 1000 м
[Sc Ac trans Ci sp]
+10.7 +8.1 84 +8 +8 1002.9 966.5 +5.6
06 19.09 ЮЗ 7-16
{14}
50 км в посл. час ливневой дождь 10/10 1000 м
[Sc]
+15.2 +11.3 78 +13 +13 999.2 963.4
09 19.09 ЮЗ 9-18
{19}
50 км {ливн. осадки} 6/3 1000 м
[Sc Ac lent]
+15.1 +6.8 58 +13 +13 999.3 963.5
12 19.09 З 6-17
{23}
50 км {ливн. осадки} 8/6 1000 м
[Sc Ci sp]
+15.0 -1.8 31 +14 +14 1001.0 965.1
15 19.09 З 6-13
{21}
10 км 6/6 1000 м
[Sc]
+10.5 +0.6 50 +8 +8 1005.0 968.4 +16.3 0.5
18 19.09 З 4-10
{16}
10 км 6/0
[Ac trans]
+8.4 +3.7 72 +5 +5 1008.5 971.5
21 19.09 З 3
{10}
10 км 4/0
[Ci sp]
+6.6 +3.4 80 +4 +4 1011.0 973.7
00 20.09 ЮЗ 2 10 км 3/0
[Ci sp]
+5.6 +3.1 84 +3 +3 1013.1 975.6
03 20.09 ЮЗ 3 50 км ясно +5.8 +3.1 83 +3 +3 1014.6 977.0 +4.8
06 20.09 З 4 50 км 4/3 1000 м
[Cu hum Ci fib]
+12.0 +4.2 59 +10 +13 1015.1 978.3

 

Местоположение метеостанции Бреды (Челябинская область, Россия): широта 52.43 долгота 60.35 высота над уровнем моря 310 м.

В архиве по умолчанию представлена погода в Бредах за последнюю неделю. Архивные данные за месяц целиком и за предыдущие месяцы, начиная с января 2011 года, Вы можете получить, выбрав интересующий диапазон дат из раскрывающегося списка и нажав кнопку "Ввод!".


*Определитесь, кто Вы:
робот инопланетянин человек

Внимание! Время в таблицах - всемирное. Для получения местного времени необходимо прибавить поправку, которая равна 5 ч.

Смотрите также архив погоды в соседних городах и на ближайших метеорологических станциях:

Погода в Айдырля (Оренбургская область, Россия) (62 км)
Погода в Аршалынском (Акмолинская область, Казахстан) (66 км)
Погода в Житикаре (Костанайская область, Казахстан) (67 км)
Погода в Карталы (Челябинская область, Россия) (72 км)
Погода в Кизильском (Челябинская область, Россия) (104 км)
Погода в Энергетике (Оренбургская область, Россия) (127 км)
Погода в Магнитогорске (Челябинская область, Россия) (133 км)
Погода в Зерносовхозе Озерном (Оренбургская область, Россия) (152 км)
Погода в Тоболе (Костанайская область, Казахстан) (155 км)
Погода в Михайловке (Костанайская область, Казахстан) (156 км)

Пояснения к столбцам:

Ветер - указаны скорость ветра в м/с - средняя за 10 мин, порывы в срок и между сроками (в фигурных скобках) и направление, откуда дует ветер: С - северный, СВ - северо-восточный, В - восточный, ЮВ - юго-восточный, Ю - южный, ЮЗ - юго-западный, З - западный, СЗ - северо-западный.
Видимость - горизонтальная дальность видимости в метрах или километрах. При видимости от 1 до 10 км при отсутствии осадков обычно наблюдается дымка, при ухудшении видимости до 1 км и менее - туман. В сухую погоду видимость может ухудшаться дымом, пылью или мглою.
Явления - указаны атмосферные явления, наблюдавшиеся в срок или в последний час перед сроком; фигурными скобками обозначены явления, наблюдавшиеся между сроками (за 1-3 часа до срока); квадратными скобками обозначены град или гололедные отложения с указанием их диаметра в мм.
Облачность - указаны через наклонную черту общая и нижняя облачность в баллах и высота нижней границы облаков в метрах; квадратными скобками обозначены формы облаков: Ci - перистые, Cs - перисто-слоистые, Cc - перисто-кучевые, Ac - высококучевые, As - высокослоистые, Sc - слоисто-кучевые, Ns - слоисто-дождевые, Cu - кучевые, Cb - кучево-дождевые. Подробнее классификацию облаков см. в Атласе облаков (PDF).
T - Температура воздуха - температура, измеренная на высоте 2 м над землей.
Td - Температура точки росы - температура, при понижении до которой содержащийся в воздухе водяной пар достигнет насыщения.
f - Относительная влажность воздуха - влажноcть воздуха, измеренная на высоте 2 м над землей.
Te - Эффективная температура - температура, которую ощущает одетый по сезону человек в тени. Характеристика душности погоды. При расчете учитывается влияние влажности воздуха и скорости ветра на теплоощущения человека.
Tes - Эффективная температура на солнце - температура, которую ощущает человек, с поправкой на солнечный нагрев. Характеристика знойности погоды. Зависит от высоты солнца над горизонтом, облачности и скорости ветра. Ночью, в пасмурную погоду, а также при ветре 12 м/с и более поправка равна нулю.
P - Атмосферное давление - приведенное к уровню моря атмосферное давление.
Po - Атмосферное давление - измеренное на уровне метеостанции атмосферное давление.
Tmin - Минимальная температура - минимум температуры воздуха на высоте 2 м над землей.
Tmax - Максимальная температура - максимум температуры воздуха на высоте 2 м над землей.
R - Количество осадков - Количество выпавших осадков за период времени, мм. При наведении курсора мыши на число - период времени, за который выпало указанное количество осадков.
R24 - Количество осадков - Количество выпавших осадков за 24 часа, мм.
S - Снежный покров - Высота снежного покрова, см. При наведении курсора мыши на число - состояние снежного покрова и степень покрытия местности в баллах.